| time (UTC) | temp C | wind direction | speed KPH | gust KPH | rain 1hr cm | rain 24hr cm | rain mn cm | humidity % | barometer mb |
| 20260504205157 | 26 | 141 | 4.8 | 4.8 | 0.00 | 0.00 | 0.00 | 94 | 1011.0 |
| 20260504204657 | 26 | 143 | 3.2 | 3.2 | 0.00 | 0.00 | 0.00 | 94 | 1011.0 |
| 20260504204158 | 26 | 169 | 4.8 | 8.0 | 0.00 | 0.00 | 0.00 | 94 | 1011.0 |
| 20260504203657 | 26 | 120 | 6.4 | 8.0 | 0.00 | 0.00 | 0.00 | 94 | 1011.0 |
| 20260504203158 | 26 | 153 | 4.8 | 8.0 | 0.00 | 0.00 | 0.00 | 94 | 1011.0 |
| 20260504202657 | 26 | 133 | 8.0 | 8.0 | 0.00 | 0.00 | 0.00 | 94 | 1011.0 |
| 20260504202157 | 26 | 152 | 3.2 | 3.2 | 0.00 | 0.00 | 0.00 | 94 | 1011.0 |
| 20260504201658 | 26 | 132 | 1.6 | 1.6 | 0.00 | 0.00 | 0.00 | 94 | 1011.0 |
| 20260504201157 | 26 | 158 | 3.2 | 3.2 | 0.00 | 0.00 | 0.00 | 95 | 1011.0 |
| 20260504200658 | 26 | 111 | 3.2 | 3.2 | 0.00 | 0.00 | 0.00 | 95 | 1011.0 |
| 20260504200157 | 26 | 148 | 3.2 | 3.2 | 0.00 | 0.00 | 0.00 | 95 | 1011.0 |
| 20260504195657 | 26 | 150 | 4.8 | 4.8 | 0.00 | 0.00 | 0.00 | 95 | 1011.0 |
| 20260504195157 | 26 | 137 | 1.6 | 1.6 | 0.00 | 0.00 | 0.00 | 95 | 1011.0 |
| 20260504194658 | 26 | 155 | 1.6 | 3.2 | 0.00 | 0.00 | 0.00 | 95 | 1011.0 |
| 20260504194157 | 26 | 160 | 0.0 | 1.6 | 0.00 | 0.00 | 0.00 | 95 | 1011.0 |
| 20260504193657 | 26 | 129 | 8.0 | 9.7 | 0.00 | 0.00 | 0.00 | 95 | 1011.0 |
| 20260504193157 | 26 | 123 | 8.0 | 9.7 | 0.00 | 0.00 | 0.00 | 95 | 1011.0 |
| 20260504192657 | 26 | 132 | 4.8 | 4.8 | 0.00 | 0.00 | 0.00 | 95 | 1011.0 |
| 20260504192159 | 26 | 140 | 4.8 | 8.0 | 0.00 | 0.00 | 0.00 | 95 | 1011.0 |
| 20260504191657 | 26 | 138 | 3.2 | 3.2 | 0.00 | 0.00 | 0.00 | 95 | 1011.0 |
| 20260504191157 | 26 | 128 | 4.8 | 4.8 | 0.00 | 0.00 | 0.00 | 93 | 1012.0 |
| 20260504190658 | 27 | 105 | 1.6 | 3.2 | 0.00 | 0.00 | 0.00 | 92 | 1011.0 |
| 20260504190157 | 27 | 147 | 1.6 | 1.6 | 0.00 | 0.00 | 0.00 | 91 | 1011.0 |
| 20260504185700 | 27 | 151 | 1.6 | 1.6 | 0.00 | 0.00 | 0.00 | 91 | 1012.0 |
| 20260504185158 | 27 | 154 | 1.6 | 1.6 | 0.00 | 0.00 | 0.00 | 91 | 1012.0 |
| 20260504184657 | 27 | 147 | 0.0 | 0.0 | 0.00 | 0.00 | 0.00 | 90 | 1011.0 |
| 20260504184158 | 27 | 150 | 1.6 | 1.6 | 0.00 | 0.00 | 0.00 | 90 | 1012.0 |
| 20260504183658 | 27 | 155 | 1.6 | 1.6 | 0.00 | 0.00 | 0.00 | 90 | 1012.0 |
| 20260504183158 | 27 | 153 | 1.6 | 1.6 | 0.00 | 0.00 | 0.00 | 89 | 1012.0 |
| 20260504182657 | 27 | 137 | 3.2 | 3.2 | 0.00 | 0.00 | 0.00 | 88 | 1012.0 |
| 20260504182157 | 28 | 155 | 1.6 | 1.6 | 0.00 | 0.00 | 0.00 | 87 | 1012.0 |
| 20260504181658 | 28 | 167 | 0.0 | 0.0 | 0.00 | 0.00 | 0.00 | 87 | 1012.0 |
| 20260504181157 | 28 | 169 | 0.0 | 0.0 | 0.00 | 0.00 | 0.00 | 87 | 1012.0 |
| 20260504180658 | 28 | 179 | 1.6 | 3.2 | 0.00 | 0.00 | 0.00 | 87 | 1012.0 |
| 20260504180157 | 28 | 190 | 1.6 | 3.2 | 0.00 | 0.00 | 0.00 | 87 | 1012.0 |
| 20260504175658 | 28 | 176 | 0.0 | 0.0 | 0.00 | 0.00 | 0.00 | 87 | 1012.0 |
| 20260504175158 | 28 | 179 | 1.6 | 3.2 | 0.00 | 0.00 | 0.00 | 86 | 1012.0 |
| 20260504174657 | 28 | 182 | 1.6 | 3.2 | 0.00 | 0.00 | 0.00 | 86 | 1012.0 |
| 20260504174159 | 28 | 170 | 0.0 | 0.0 | 0.00 | 0.00 | 0.00 | 86 | 1012.0 |
| 20260504173657 | 28 | 195 | 4.8 | 4.8 | 0.00 | 0.00 | 0.00 | 86 | 1012.0 |
| 20260504173157 | 28 | 168 | 1.6 | 1.6 | 0.00 | 0.00 | 0.00 | 86 | 1012.0 |
| 20260504172659 | 28 | 183 | 1.6 | 1.6 | 0.00 | 0.00 | 0.00 | 86 | 1012.0 |
| 20260504172157 | 28 | 174 | 1.6 | 1.6 | 0.00 | 0.00 | 0.00 | 86 | 1012.0 |
| 20260504171658 | 28 | 178 | 1.6 | 3.2 | 0.00 | 0.00 | 0.00 | 86 | 1012.0 |
| 20260504171158 | 28 | 179 | 3.2 | 3.2 | 0.00 | 0.00 | 0.00 | 86 | 1012.0 |
| 20260504170658 | 28 | 169 | 1.6 | 3.2 | 0.00 | 0.00 | 0.00 | 86 | 1013.0 |
| 20260504170158 | 28 | 173 | 0.0 | 0.0 | 0.00 | 0.00 | 0.00 | 85 | 1013.0 |
| 20260504160157 | 28 | 188 | 3.2 | 3.2 | 0.00 | 0.00 | 0.00 | 84 | 1013.0 |
| 20260504150658 | 29 | 270 | 4.8 | 8.0 | 0.00 | 0.00 | 0.00 | 84 | 1013.0 |
| 20260504150158 | 29 | 281 | 4.8 | 4.8 | 0.00 | 0.00 | 0.00 | 84 | 1013.0 |
| 20260504141157 | 29 | 167 | 1.6 | 1.6 | 0.00 | 0.00 | 0.00 | 80 | 1013.0 |
| 20260504140658 | 29 | 216 | 3.2 | 3.2 | 0.00 | 0.00 | 0.00 | 80 | 1013.0 |
| 20260504140157 | 29 | 275 | 6.4 | 8.0 | 0.00 | 0.00 | 0.00 | 80 | 1013.0 |
| 20260504130700 | 30 | 280 | 6.4 | 8.0 | 0.00 | 0.00 | 0.00 | 80 | 1013.0 |
| 20260504130158 | 30 | 314 | 6.4 | 11.3 | 0.00 | 0.00 | 0.00 | 80 | 1013.0 |
| 20260504120159 | 30 | 226 | 3.2 | 3.2 | 0.00 | 0.00 | 0.00 | 76 | 1012.0 |
| 20260504110658 | 30 | 265 | 4.8 | 4.8 | 0.00 | 0.00 | 0.00 | 74 | 1011.0 |
| 20260504110157 | 30 | 175 | 3.2 | 3.2 | 0.00 | 0.00 | 0.00 | 73 | 1012.0 |
| 20260504100158 | 31 | 218 | 4.8 | 8.0 | 0.00 | 0.00 | 0.00 | 69 | 1011.0 |
| 20260504081657 | 33 | 290 | 8.0 | 11.3 | 0.00 | 0.00 | 0.00 | 62 | 1009.0 |
| 20260504081157 | 33 | 273 | 4.8 | 8.0 | 0.00 | 0.00 | 0.00 | 61 | 1010.0 |
| 20260504080657 | 33 | 192 | 6.4 | 8.0 | 0.00 | 0.00 | 0.00 | 59 | 1010.0 |
| 20260504080157 | 33 | 258 | 4.8 | 11.3 | 0.00 | 0.00 | 0.00 | 60 | 1009.0 |
| 20260504070157 | 33 | 297 | 8.0 | 9.7 | 0.00 | 0.00 | 0.00 | 58 | 1010.0 |
| 20260504060158 | 33 | 302 | 12.9 | 12.9 | 0.00 | 0.00 | 0.00 | 59 | 1011.0 |
| 20260504050657 | 33 | 238 | 14.5 | 14.5 | 0.00 | 0.00 | 0.00 | 61 | 1012.0 |
| 20260504050157 | 33 | 292 | 11.3 | 14.5 | 0.00 | 0.00 | 0.00 | 63 | 1012.0 |
| 20260504045658 | 33 | 310 | 9.7 | 11.3 | 0.00 | 0.00 | 0.00 | 63 | 1012.0 |
| 20260504045157 | 33 | 274 | 8.0 | 9.7 | 0.00 | 0.00 | 0.00 | 64 | 1012.0 |
| 20260504044657 | 33 | 285 | 9.7 | 12.9 | 0.00 | 0.00 | 0.00 | 64 | 1012.0 |
| 20260504044158 | 33 | 291 | 9.7 | 11.3 | 0.00 | 0.00 | 0.00 | 65 | 1012.0 |
| 20260504043658 | 32 | 223 | 8.0 | 11.3 | 0.00 | 0.00 | 0.00 | 65 | 1012.0 |
| 20260504043158 | 32 | 215 | 3.2 | 3.2 | 0.00 | 0.00 | 0.00 | 65 | 1012.0 |
| 20260504042657 | 33 | 272 | 11.3 | 12.9 | 0.00 | 0.00 | 0.00 | 65 | 1012.0 |
| 20260504042157 | 32 | 255 | 8.0 | 9.7 | 0.00 | 0.00 | 0.00 | 66 | 1013.0 |
| 20260504041658 | 32 | 320 | 4.8 | 8.0 | 0.00 | 0.00 | 0.00 | 68 | 1012.0 |
| 20260504041200 | 32 | 264 | 8.0 | 9.7 | 0.00 | 0.00 | 0.00 | 68 | 1012.0 |
| 20260504040657 | 32 | 315 | 11.3 | 12.9 | 0.00 | 0.00 | 0.00 | 68 | 1012.0 |
| 20260504040157 | 32 | 295 | 4.8 | 8.0 | 0.00 | 0.00 | 0.00 | 67 | 1013.0 |
| 20260504035657 | 32 | 290 | 6.4 | 8.0 | 0.00 | 0.00 | 0.00 | 68 | 1013.0 |
| 20260504035157 | 32 | 206 | 3.2 | 3.2 | 0.00 | 0.00 | 0.00 | 67 | 1013.0 |
| 20260504034658 | 32 | 270 | 11.3 | 12.9 | 0.00 | 0.00 | 0.00 | 67 | 1013.0 |
| 20260504034157 | 32 | 239 | 6.4 | 8.0 | 0.00 | 0.00 | 0.00 | 70 | 1013.0 |
| 20260504033657 | 31 | 176 | 4.8 | 4.8 | 0.00 | 0.00 | 0.00 | 74 | 1013.0 |
| 20260504033158 | 32 | 207 | 3.2 | 4.8 | 0.00 | 0.00 | 0.00 | 73 | 1013.0 |
| 20260504032657 | 32 | 165 | 1.6 | 1.6 | 0.00 | 0.00 | 0.00 | 72 | 1013.0 |
| 20260504032157 | 31 | 213 | 3.2 | 3.2 | 0.00 | 0.00 | 0.00 | 73 | 1013.0 |
| 20260504031657 | 31 | 162 | 8.0 | 9.7 | 0.00 | 0.00 | 0.00 | 74 | 1013.0 |
| 20260504031157 | 31 | 205 | 4.8 | 4.8 | 0.00 | 0.00 | 0.00 | 74 | 1014.0 |
| 20260504030658 | 31 | 202 | 11.3 | 14.5 | 0.00 | 0.00 | 0.00 | 74 | 1014.0 |
| 20260504030158 | 32 | 241 | 11.3 | 11.3 | 0.00 | 0.00 | 0.00 | 72 | 1014.0 |
| 20260504025658 | 31 | 192 | 3.2 | 3.2 | 0.00 | 0.00 | 0.00 | 75 | 1014.0 |
| 20260504025158 | 31 | 192 | 3.2 | 3.2 | 0.00 | 0.00 | 0.00 | 77 | 1014.0 |
| 20260504024700 | 31 | 177 | 8.0 | 11.3 | 0.00 | 0.00 | 0.00 | 76 | 1014.0 |
| 20260504024157 | 31 | 161 | 1.6 | 3.2 | 0.00 | 0.00 | 0.00 | 78 | 1014.0 |
| 20260504023657 | 30 | 194 | 1.6 | 3.2 | 0.00 | 0.00 | 0.00 | 78 | 1014.0 |
| 20260504023157 | 31 | 197 | 8.0 | 8.0 | 0.00 | 0.00 | 0.00 | 76 | 1014.0 |
| 20260504022657 | 31 | 181 | 1.6 | 1.6 | 0.00 | 0.00 | 0.00 | 77 | 1014.0 |
| 20260504022157 | 31 | 157 | 3.2 | 4.8 | 0.00 | 0.00 | 0.00 | 77 | 1014.0 |
| 20260504021657 | 31 | 271 | 6.4 | 8.0 | 0.00 | 0.00 | 0.00 | 77 | 1014.0 |
| 20260504021157 | 31 | 191 | 3.2 | 3.2 | 0.00 | 0.00 | 0.00 | 77 | 1014.0 |
| 20260504020657 | 30 | 204 | 4.8 | 4.8 | 0.00 | 0.00 | 0.00 | 79 | 1014.0 |
| 20260504020157 | 31 | 132 | 0.0 | 0.0 | 0.00 | 0.00 | 0.00 | 77 | 1014.0 |
| 20260504015657 | 31 | 211 | 1.6 | 3.2 | 0.00 | 0.00 | 0.00 | 78 | 1014.0 |
| 20260504015157 | 30 | 193 | 1.6 | 1.6 | 0.00 | 0.00 | 0.00 | 81 | 1014.0 |
| 20260504014657 | 30 | 158 | 1.6 | 3.2 | 0.00 | 0.00 | 0.00 | 81 | 1014.0 |
| 20260504014158 | 30 | 194 | 4.8 | 4.8 | 0.00 | 0.00 | 0.00 | 82 | 1014.0 |
| 20260504013657 | 29 | 157 | 1.6 | 1.6 | 0.00 | 0.00 | 0.00 | 83 | 1014.0 |
| 20260504013157 | 29 | 145 | 1.6 | 1.6 | 0.00 | 0.00 | 0.00 | 84 | 1014.0 |
| 20260504012658 | 29 | 170 | 3.2 | 3.2 | 0.00 | 0.00 | 0.00 | 84 | 1014.0 |
| 20260504012157 | 28 | 172 | 1.6 | 1.6 | 0.00 | 0.00 | 0.00 | 87 | 1014.0 |
| 20260504011658 | 28 | 151 | 4.8 | 4.8 | 0.00 | 0.00 | 0.00 | 85 | 1014.0 |
| 20260504011157 | 28 | 167 | 1.6 | 1.6 | 0.00 | 0.00 | 0.00 | 85 | 1014.0 |
| 20260504010657 | 28 | 148 | 6.4 | 8.0 | 0.00 | 0.00 | 0.00 | 85 | 1014.0 |
| 20260504010157 | 28 | 175 | 1.6 | 3.2 | 0.00 | 0.00 | 0.00 | 87 | 1014.0 |
| 20260504005657 | 28 | 150 | 3.2 | 3.2 | 0.00 | 0.00 | 0.00 | 87 | 1014.0 |
| 20260504005157 | 27 | 177 | 6.4 | 8.0 | 0.00 | 0.00 | 0.00 | 88 | 1013.0 |
| 20260504004657 | 27 | 153 | 3.2 | 4.8 | 0.00 | 0.00 | 0.00 | 89 | 1014.0 |
| 20260504004157 | 27 | 169 | 3.2 | 3.2 | 0.00 | 0.00 | 0.00 | 90 | 1013.0 |
| 20260504003657 | 27 | 181 | 4.8 | 8.0 | 0.00 | 0.00 | 0.00 | 89 | 1014.0 |
| 20260504003157 | 27 | 164 | 4.8 | 4.8 | 0.00 | 0.00 | 0.00 | 89 | 1013.0 |
| 20260504002657 | 27 | 158 | 4.8 | 4.8 | 0.00 | 0.00 | 0.00 | 89 | 1013.0 |
| 20260504002157 | 27 | 177 | 4.8 | 4.8 | 0.00 | 0.00 | 0.00 | 90 | 1013.0 |
| 20260504001657 | 27 | 164 | 1.6 | 1.6 | 0.00 | 0.00 | 0.00 | 91 | 1013.0 |
| 20260504001158 | 27 | 135 | 4.8 | 4.8 | 0.00 | 0.00 | 0.00 | 91 | 1013.0 |
| 20260504000657 | 27 | 169 | 0.0 | 0.0 | 0.00 | 0.00 | 0.00 | 93 | 1013.0 |
| 20260504000157 | 26 | 137 | 3.2 | 3.2 | 0.00 | 0.00 | 0.00 | 92 | 1013.0 |
| 20260503235657 | 26 | 158 | 1.6 | 3.2 | 0.00 | 0.00 | 0.00 | 93 | 1013.0 |
| 20260503235159 | 26 | 158 | 6.4 | 8.0 | 0.00 | 0.00 | 0.00 | 93 | 1013.0 |
| 20260503234657 | 26 | 149 | 1.6 | 3.2 | 0.00 | 0.00 | 0.00 | 93 | 1013.0 |
| 20260503234157 | 26 | 146 | 3.2 | 3.2 | 0.00 | 0.00 | 0.00 | 93 | 1013.0 |
| 20260503233657 | 26 | 141 | 4.8 | 4.8 | 0.00 | 0.00 | 0.00 | 93 | 1013.0 |
| 20260503233157 | 26 | 150 | 1.6 | 1.6 | 0.00 | 0.00 | 0.00 | 93 | 1013.0 |
| 20260503232657 | 26 | 156 | 0.0 | 0.0 | 0.00 | 0.00 | 0.00 | 93 | 1013.0 |
| 20260503232157 | 26 | 161 | 0.0 | 0.0 | 0.00 | 0.00 | 0.00 | 94 | 1013.0 |
| 20260503231657 | 26 | 156 | 0.0 | 0.0 | 0.00 | 0.00 | 0.00 | 94 | 1013.0 |
| 20260503231157 | 26 | 141 | 1.6 | 3.2 | 0.00 | 0.00 | 0.00 | 94 | 1013.0 |
| 20260503230657 | 26 | 160 | 0.0 | 0.0 | 0.00 | 0.00 | 0.00 | 94 | 1013.0 |
| 20260503230158 | 26 | 120 | 0.0 | 0.0 | 0.00 | 0.00 | 0.00 | 94 | 1013.0 |
| 20260503225703 | 26 | 143 | 0.0 | 0.0 | 0.00 | 0.00 | 0.00 | 95 | 1013.0 |
| 20260503225157 | 26 | 126 | 4.8 | 4.8 | 0.00 | 0.00 | 0.00 | 95 | 1013.0 |
| 20260503224657 | 26 | 140 | 3.2 | 3.2 | 0.00 | 0.00 | 0.00 | 95 | 1013.0 |
| 20260503224157 | 26 | 151 | 0.0 | 1.6 | 0.00 | 0.00 | 0.00 | 95 | 1012.0 |
| 20260503223657 | 26 | 147 | 3.2 | 3.2 | 0.00 | 0.00 | 0.00 | 95 | 1012.0 |
| 20260503223157 | 26 | 138 | 3.2 | 3.2 | 0.00 | 0.00 | 0.00 | 94 | 1012.0 |
| 20260503222657 | 26 | 148 | 1.6 | 1.6 | 0.00 | 0.00 | 0.00 | 94 | 1012.0 |
| 20260503222157 | 26 | 154 | 0.0 | 0.0 | 0.00 | 0.00 | 0.00 | 94 | 1012.0 |
| 20260503221657 | 26 | 158 | 0.0 | 0.0 | 0.00 | 0.00 | 0.00 | 94 | 1012.0 |
| 20260503221157 | 26 | 159 | 1.6 | 1.6 | 0.00 | 0.00 | 0.00 | 94 | 1012.0 |
| 20260503220657 | 26 | 167 | 1.6 | 3.2 | 0.00 | 0.00 | 0.00 | 93 | 1012.0 |
| 20260503220158 | 26 | 167 | 0.0 | 0.0 | 0.00 | 0.00 | 0.00 | 93 | 1012.0 |
| 20260503215657 | 26 | 170 | 0.0 | 0.0 | 0.00 | 0.00 | 0.00 | 93 | 1012.0 |
| 20260503215157 | 26 | 165 | 0.0 | 0.0 | 0.00 | 0.00 | 0.00 | 93 | 1012.0 |
| 20260503214657 | 26 | 165 | 0.0 | 0.0 | 0.00 | 0.00 | 0.00 | 93 | 1012.0 |
| 20260503214157 | 26 | 168 | 0.0 | 0.0 | 0.00 | 0.00 | 0.00 | 93 | 1012.0 |
| 20260503213657 | 26 | 177 | 0.0 | 0.0 | 0.00 | 0.00 | 0.00 | 93 | 1012.0 |
| 20260503213157 | 26 | 165 | 0.0 | 0.0 | 0.00 | 0.00 | 0.00 | 93 | 1012.0 |
| 20260503212657 | 26 | 166 | 0.0 | 0.0 | 0.00 | 0.00 | 0.00 | 93 | 1012.0 |
| 20260503212157 | 26 | 147 | 0.0 | 0.0 | 0.00 | 0.00 | 0.00 | 93 | 1012.0 |
| 20260503211657 | 26 | 181 | 0.0 | 0.0 | 0.00 | 0.00 | 0.00 | 94 | 1012.0 |
| 20260503211157 | 26 | 171 | 0.0 | 0.0 | 0.00 | 0.00 | 0.00 | 94 | 1012.0 |
| 20260503210657 | 26 | 182 | 0.0 | 0.0 | 0.00 | 0.00 | 0.00 | 94 | 1011.0 |
| 20260503210158 | 26 | 131 | 0.0 | 0.0 | 0.00 | 0.00 | 0.00 | 93 | 1011.0 |
| 20260503205658 | 26 | 158 | 0.0 | 0.0 | 0.00 | 0.00 | 0.00 | 93 | 1011.0 |